Regional Weather Roundup
Issued by NWS

Home | Current Version | Previous Version | Graphics & Text | Print | Product List | Glossary On
Versions: 1 2 3 4 5 6 7 8 9 10 11 12 13 14 15 16 17 18 19 20 21 22 23 24 25 26 27 28 29 30 31 32 33 34 35 36 37 38 39 40 41 42 43 44 45 46 47 48 49 50
000
ASUS43 KIND 270809
RWRIN

WEATHER ROUNDUP FOR INDIANA
NATIONAL WEATHER SERVICE INDIANAPOLIS IN
300 AM EST THU NOV 27 2014

NOTE: "FAIR" INDICATES FEW OR NO CLOUDS BELOW 12,000 FEET WITH NO
SIGNIFICANT WEATHER AND/OR OBSTRUCTIONS TO VISIBILITY.

* - STATION DOES NOT REPORT WEATHER SUCH AS PRECIPITATION OR FOG.

+ - STATION NOT QUALITY CONTROLLED BY THE NATIONAL WEATHER SERVICE.
    USE DATA WITH CAUTION...ESPECIALLY DEWPOINT AND RELATIVE
    HUMIDITY OBSERVATIONS.

INZ001>003-010>013-019-020-270900-
NORTHWEST INDIANA

CITY           SKY/WX    TMP DP  RH WIND       PRES   REMARKS
GARY /AIRPORT/ LGT SNOW  31  25  80 W9        30.20R WCI  22
KNOX *+        CLOUDY    27  22  82 W5        30.17R WCI  21
LA PORTE +     FLURRIES  29  24  81 W3        30.17R
MICHIGAN CITY+ FLURRIES  28  21  74 CALM      30.18R
MONTICELLO +   CLOUDY    23  21  91 NW3       30.17S
RENSSELAER +   CLOUDY    28  27  93 W8        30.19R WCI  20
VALPARAISO     MIX PCPN  27  24  89 W14       30.17S WCI  16

$$

LMZ046-743>745-270900-
SOUTHERN LAKE MICHIGAN

STATION/POSITION TIME  TEMP WIND        PRES
                       AIR  DIR/SP/G
                 (UTC) (F)  (DEG/KT/KT) (MB)
MICHIGAN CITY    0800   28  170/  7/  8   N/A

$$

INZ004-005-014>016-021>024-270900-
NORTH CENTRAL INDIANA

CITY           SKY/WX    TMP DP  RH WIND       PRES   REMARKS
GOSHEN         CLOUDY    27  22  81 NW6       30.14R WCI  20
LOGANSPORT +   MOCLDY    27  19  74 NW6       30.17R WCI  20
PERU/GRISSOM   MOCLDY    26  23  88 NW8       30.14S WCI  18
ROCHESTER +    CLOUDY    30  23  74 NW5       30.16S WCI  25
SOUTH BEND     FLURRIES  28  22  78 NW5       30.17R WCI  23
WARSAW +       CLOUDY    28  23  80 NW6       30.15R WCI  22

$$

INZ006>009-017-018-025>027-270900-
NORTHEAST INDIANA

CITY           SKY/WX    TMP DP  RH WIND       PRES   REMARKS
ANGOLA *+      CLOUDY    27  16  63 NW6       30.12R WCI  20
AUBURN +       CLOUDY    30  23  74 NW7       30.13R WCI  23
FORT WAYNE     CLOUDY    29  23  78 N8        30.14R WCI  21
HUNTINGTON +   CLOUDY    28  23  82 NW5       30.14R WCI  23

$$

INZ028-029-035-036-043>045-051>053-270900-
WEST CENTRAL INDIANA

CITY           SKY/WX    TMP DP  RH WIND       PRES   REMARKS
GREENCASTLE +  CLOUDY    28  23  80 N6        30.16R WCI  22
LAFAYETTE      PTCLDY    23  19  85 NW7       30.19R WCI  15
TERRE HAUTE    CLOUDY    29  22  75 N8        30.19R WCI  21

$$

INZ030>032-037>040-046>048-054>057-064-065-270900-
CENTRAL INDIANA

CITY           SKY/WX    TMP DP  RH WIND       PRES   REMARKS
CP ATTERBURY + CLOUDY    30  25  80 N9        30.15R WCI  22
FRANKFORT +    MOCLDY    28  22  80 NW9       30.17S WCI  19
INDIANAPOLIS   FLURRIES  28  21  75 N9        30.14R WCI  19
-EAGLE CREEK   CLOUDY    28  21  75 N10       30.14R WCI  19
KOKOMO *+      CLOUDY    28  19  69 N8        30.14S WCI  20
MARION +         N/A     28  21  76 N6        30.14S WCI  21
MT COMFORT *+  CLOUDY    28  18  64 N10       30.14R WCI  19
SHELBYVILLE    CLOUDY    30  22  72 N15       30.13R WCI  19
ZIONSVILLE +   CLOUDY    28  20  72 N10       30.15R WCI  19

$$

INZ033-034-041-042-049-050-058-059-270900-
EAST CENTRAL INDIANA

CITY           SKY/WX    TMP DP  RH WIND       PRES   REMARKS
MUNCIE         CLOUDY    28  22  78 N10       30.12R WCI  19

$$

INZ060-061-067>069-081>083-085>088-270900-
SOUTHWEST INDIANA

CITY           SKY/WX    TMP DP  RH WIND       PRES   REMARKS
EVANSVILLE     LGT SNOW  33  30  88 N9        30.19R FOG     WCI  25
HUNTINGBURG *+ CLOUDY    32  28  86 N9G16     30.16R WCI  24
WASHINGTON +   CLOUDY    31  30  95 N12G18    30.17R WCI  22

$$

INZ062-063-066-070>080-084-089>092-270900-
SOUTH CENTRAL AND SOUTHEAST INDIANA

CITY           SKY/WX    TMP DP  RH WIND       PRES   REMARKS
BLOOMINGTON    FLURRIES  28  24  85 N9        30.15R WCI  19
SEYMOUR +      CLOUDY    32  25  74 N10       30.14R WCI  24

$$



USA.gov is the U.S. government's official web portal to all federal, state and local government web resources and services.